This is the latest recevied weather packets stored in our database for station/object K0CVS. If no packets are shown the sender has not sent any weather packets the latest 1 day(s).
| Time | Temp. | Humidity | Pressure | Rain* | Wind** | Luminosity | Snow |
|---|---|---|---|---|---|---|---|
| 1778044573 | 8.33° C | 77% | 1015.6 hPa | 0 mm | - | 0 W/m² | - |
| 1778044269 | 8.33° C | 77% | 1015.7 hPa | 0 mm | - | 0 W/m² | - |
| 1778043968 | 8.33° C | 77% | 1015.6 hPa | 0 mm | - | 0 W/m² | - |
| 1778043361 | 8.33° C | 80% | 1015.3 hPa | 0 mm | - | 0 W/m² | - |
| 1778042756 | 8.33° C | 81% | 1015.4 hPa | 0 mm | - | 0 W/m² | - |
| 1778042452 | 8.33° C | 78% | 1015.2 hPa | 0 mm | - | 0 W/m² | - |
| 1778042149 | 8.89° C | 77% | 1015.3 hPa | 0 mm | - | 0 W/m² | - |
| 1778041848 | 8.89° C | 77% | 1015.5 hPa | 0 mm | - | 0 W/m² | - |
| 1778041244 | 9.44° C | 74% | 1015.4 hPa | 0 mm | - | 0 W/m² | - |
| 1778040942 | 9.44° C | 74% | 1015.4 hPa | 0 mm | - | 0 W/m² | - |
| 1778040639 | 10° C | 74% | 1015.2 hPa | 0 mm | - | 0 W/m² | - |
| 1778040337 | 9.44° C | 79% | 1015 hPa | 0 mm | - | 0 W/m² | - |
| 1778040032 | 10° C | 80% | 1014.6 hPa | 0 mm | - | 0 W/m² | - |
| 1778039426 | 9.44° C | 78% | 1014.6 hPa | 0 mm | - | 0 W/m² | - |
| 1778039124 | 9.44° C | 80% | 1014.4 hPa | 0 mm | - | 0 W/m² | - |
| 1778038518 | 10° C | 78% | 1014.1 hPa | 0 mm | - | 0 W/m² | - |
| 1778038215 | 10° C | 80% | 1013.9 hPa | 0 mm | - | 0 W/m² | - |
| 1778037912 | 10° C | 80% | 1013.9 hPa | 0 mm | - | 0 W/m² | - |
| 1778036701 | 10° C | 81% | 1013.8 hPa | 0 mm | - | 0 W/m² | - |
| 1778036398 | 10° C | 83% | 1013.6 hPa | 0 mm | - | 0 W/m² | - |
| 1778036095 | 10° C | 86% | 1013.5 hPa | 0 mm | - | 0 W/m² | - |
| 1778035791 | 10° C | 88% | 1013.2 hPa | 1.78 mm | - | 0 W/m² | - |
| 1778035488 | 10° C | 90% | 1013.5 hPa | 1.78 mm | - | 0 W/m² | - |
| 1778035184 | 10° C | 91% | 1013.4 hPa | 0 mm | - | 0 W/m² | - |
| 1778034881 | 10° C | 91% | 1013.1 hPa | 0 mm | - | 0 W/m² | - |
* Rain latest hour (hover to see other rain measurements)
** Current wind speed in m/s (hover to see current wind gust speed)